This is the latest recevied weather packets stored in our database for station/object OK1LPD-6. If no packets are shown the sender has not sent any weather packets the latest 10 day(s).
| Time | Temp. | Humidity | Pressure | Rain* | Wind** | Luminosity | Snow |
|---|---|---|---|---|---|---|---|
| 1787616364 | 13.89° C | 77% | 1018 hPa | 0 mm | - | - | - |
| 1787615763 | 13.89° C | 77% | 1018.2 hPa | 0 mm | - | - | - |
| 1787615180 | 13.89° C | 78% | 1018 hPa | 0 mm | - | - | - |
| 1787614564 | 13.89° C | 78% | 1018.3 hPa | 0 mm | - | - | - |
| 1787613963 | 13.33° C | 79% | 1018.3 hPa | 0 mm | - | - | - |
| 1787613383 | 13.33° C | 80% | 1018.2 hPa | 0 mm | - | - | - |
| 1787612764 | 12.78° C | 80% | 1018.5 hPa | 0 mm | - | - | - |
| 1787612163 | 12.78° C | 80% | 1018.8 hPa | 0 mm | - | - | - |
| 1787611581 | 12.78° C | 79% | 1018.7 hPa | 0 mm | - | - | - |
| 1787610964 | 12.78° C | 78% | 1019 hPa | 0 mm | - | - | - |
| 1787610364 | 12.78° C | 78% | 1018.8 hPa | 0 mm | - | - | - |
| 1787609784 | 13.33° C | 77% | 1019.2 hPa | 0 mm | - | - | - |
| 1787609164 | 13.33° C | 76% | 1019.3 hPa | 0 mm | - | - | - |
| 1787608564 | 13.33° C | 76% | 1019.7 hPa | 0 mm | - | - | - |
| 1787607982 | 13.33° C | 77% | 1019.6 hPa | 0 mm | - | - | - |
| 1787607364 | 13.33° C | 76% | 1019.5 hPa | 0 mm | - | - | - |
| 1787606764 | 13.33° C | 77% | 1019.7 hPa | 0 mm | - | - | - |
| 1787606185 | 13.33° C | 76% | 1019.6 hPa | 0 mm | - | - | - |
| 1787605565 | 13.33° C | 74% | 1019.7 hPa | 0 mm | - | - | - |
| 1787604965 | 13.89° C | 74% | 1019.6 hPa | 0 mm | - | - | - |
| 1787604383 | 13.89° C | 73% | 1019.6 hPa | 0 mm | - | - | - |
| 1787603764 | 13.89° C | 73% | 1019.6 hPa | 0 mm | - | - | - |
| 1787603166 | 13.89° C | 72% | 1019.8 hPa | 0 mm | - | - | - |
| 1787602586 | 14.44° C | 71% | 1019.8 hPa | 0 mm | - | - | - |
| 1787601965 | 14.44° C | 72% | 1019.6 hPa | 0 mm | - | - | - |
* Rain latest hour (hover to see other rain measurements)
** Current wind speed in m/s (hover to see current wind gust speed)